Data supplied by UK-AIR on 13/6/2020
All Data GMT hour ending 
Status: R =Ratified P=Provisional,P*=As supplied
,,Cambridge Roadside,,,,,,,,,,,,,,,,,,,,,,,
Date,time,"Nitric oxide",status,unit,"Nitrogen dioxide",status,unit,"Nitrogen oxides as nitrogen dioxide",status,unit
 
01-01-2019,01:00,17.76948,R,ugm-3,31.43637,R,ugm-3,58.68252,R,ugm-3
01-01-2019,02:00,9.00073,R,ugm-3,22.14033,R,ugm-3,35.94125,R,ugm-3
01-01-2019,03:00,9.74306,R,ugm-3,23.31569,R,ugm-3,38.25484,R,ugm-3
01-01-2019,04:00,18.02465,R,ugm-3,32.78478,R,ugm-3,60.42219,R,ugm-3
01-01-2019,05:00,9.18631,R,ugm-3,19.59599,R,ugm-3,33.68147,R,ugm-3
01-01-2019,06:00,5.53266,R,ugm-3,24.44491,R,ugm-3,32.92821,R,ugm-3
01-01-2019,07:00,6.26339,R,ugm-3,25.10002,R,ugm-3,34.70375,R,ugm-3
01-01-2019,08:00,2.92292,R,ugm-3,13.16606,R,ugm-3,17.64780,R,ugm-3
01-01-2019,09:00,2.50536,R,ugm-3,13.69870,R,ugm-3,17.54019,R,ugm-3
01-01-2019,10:00,1.63544,R,ugm-3,12.44995,R,ugm-3,14.95759,R,ugm-3
01-01-2019,11:00,1.84422,R,ugm-3,11.53797,R,ugm-3,14.36574,R,ugm-3
01-01-2019,12:00,2.40097,R,ugm-3,10.79192,R,ugm-3,14.47335,R,ugm-3
01-01-2019,13:00,4.76714,R,ugm-3,14.31981,R,ugm-3,21.62932,R,ugm-3
01-01-2019,14:00,3.06210,R,ugm-3,14.67438,R,ugm-3,19.36954,R,ugm-3
01-01-2019,15:00,1.63544,R,ugm-3,15.08636,R,ugm-3,17.59400,R,ugm-3
01-01-2019,16:00,1.32227,R,ugm-3,13.30676,R,ugm-3,15.33422,R,ugm-3
01-01-2019,17:00,1.28748,R,ugm-3,14.16718,R,ugm-3,16.14128,R,ugm-3
01-01-2019,18:00,1.32227,R,ugm-3,14.81328,R,ugm-3,16.84074,R,ugm-3
01-01-2019,19:00,0.97431,R,ugm-3,12.06476,R,ugm-3,13.55868,R,ugm-3
01-01-2019,20:00,1.56585,R,ugm-3,11.42676,R,ugm-3,13.82770,R,ugm-3
01-01-2019,21:00,2.08780,R,ugm-3,14.01612,R,ugm-3,17.21737,R,ugm-3
01-01-2019,22:00,5.70665,R,ugm-3,20.30423,R,ugm-3,29.05430,R,ugm-3
01-01-2019,23:00,1.94861,R,ugm-3,14.55236,R,ugm-3,17.54019,R,ugm-3
01-01-2019,24:00,2.15739,R,ugm-3,11.64963,R,ugm-3,14.95759,R,ugm-3
02-01-2019,01:00,0.97524,R,ugm-3,9.99677,R,ugm-3,11.49212,R,ugm-3
02-01-2019,02:00,0.69660,R,ugm-3,10.28036,R,ugm-3,11.34846,R,ugm-3
02-01-2019,03:00,1.07973,R,ugm-3,9.49539,R,ugm-3,11.15094,R,ugm-3
02-01-2019,04:00,0.59211,R,ugm-3,8.46537,R,ugm-3,9.37326,R,ugm-3
02-01-2019,05:00,1.01007,R,ugm-3,9.06350,R,ugm-3,10.61225,R,ugm-3
02-01-2019,06:00,5.12000,R,ugm-3,13.15847,R,ugm-3,21.00902,R,ugm-3
02-01-2019,07:00,27.58529,R,ugm-3,28.48739,R,ugm-3,70.78425,R,ugm-3
02-01-2019,08:00,71.81928,R,ugm-3,50.89394,R,ugm-3,161.01530,R,ugm-3
02-01-2019,09:00,75.40676,R,ugm-3,54.55099,R,ugm-3,170.17308,R,ugm-3
02-01-2019,10:00,53.15045,R,ugm-3,44.28857,R,ugm-3,125.78479,R,ugm-3
02-01-2019,11:00,52.10555,R,ugm-3,43.14339,R,ugm-3,123.03745,R,ugm-3
02-01-2019,12:00,41.76107,R,ugm-3,41.17398,R,ugm-3,105.20672,R,ugm-3
02-01-2019,13:00,46.81141,R,ugm-3,39.35586,R,ugm-3,111.13234,R,ugm-3
02-01-2019,14:00,44.19916,R,ugm-3,42.66094,R,ugm-3,110.43204,R,ugm-3
02-01-2019,15:00,52.73249,R,ugm-3,44.71395,R,ugm-3,125.56931,R,ugm-3
02-01-2019,16:00,52.62800,R,ugm-3,46.97507,R,ugm-3,127.67021,R,ugm-3
02-01-2019,17:00,58.27045,R,ugm-3,48.50474,R,ugm-3,137.85151,R,ugm-3
02-01-2019,18:00,49.59780,R,ugm-3,45.04926,R,ugm-3,121.09816,R,ugm-3
02-01-2019,19:00,41.06447,R,ugm-3,41.27243,R,ugm-3,104.23707,R,ugm-3
02-01-2019,20:00,32.46148,R,ugm-3,39.43397,R,ugm-3,89.20754,R,ugm-3
02-01-2019,21:00,25.21686,R,ugm-3,37.18265,R,ugm-3,75.84796,R,ugm-3
02-01-2019,22:00,13.93197,R,ugm-3,28.19770,R,ugm-3,49.55975,R,ugm-3
02-01-2019,23:00,23.61468,R,ugm-3,33.82140,R,ugm-3,70.03008,R,ugm-3
02-01-2019,24:00,16.68353,R,ugm-3,30.28140,R,ugm-3,55.86245,R,ugm-3
03-01-2019,01:00,7.48397,R,ugm-3,23.25844,R,ugm-3,34.73370,R,ugm-3
03-01-2019,02:00,1.58047,R,ugm-3,17.42448,R,ugm-3,19.84783,R,ugm-3
03-01-2019,03:00,1.74316,R,ugm-3,16.41994,R,ugm-3,19.09275,R,ugm-3
03-01-2019,04:00,1.42939,R,ugm-3,14.95941,R,ugm-3,17.15111,R,ugm-3
03-01-2019,05:00,1.42939,R,ugm-3,14.36613,R,ugm-3,16.55783,R,ugm-3
03-01-2019,06:00,5.78729,R,ugm-3,18.63277,R,ugm-3,27.50650,R,ugm-3
03-01-2019,07:00,43.78818,R,ugm-3,33.77015,R,ugm-3,100.91109,R,ugm-3
03-01-2019,08:00,65.26391,R,ugm-3,38.10976,R,ugm-3,138.17970,R,ugm-3
03-01-2019,09:00,77.71007,R,ugm-3,43.08062,R,ugm-3,162.23440,R,ugm-3
03-01-2019,10:00,50.37732,R,ugm-3,40.87198,R,ugm-3,118.11614,R,ugm-3
03-01-2019,11:00,43.89277,R,ugm-3,39.86616,R,ugm-3,107.16747,R,ugm-3
03-01-2019,12:00,25.69418,R,ugm-3,34.33101,R,ugm-3,73.72820,R,ugm-3
03-01-2019,13:00,26.49603,R,ugm-3,33.58693,R,ugm-3,74.21361,R,ugm-3
03-01-2019,14:00,25.20609,R,ugm-3,34.59399,R,ugm-3,73.24279,R,ugm-3
03-01-2019,15:00,38.55870,R,ugm-3,39.73907,R,ugm-3,98.86159,R,ugm-3
03-01-2019,16:00,41.87070,R,ugm-3,40.64745,R,ugm-3,104.84830,R,ugm-3
03-01-2019,17:00,37.16417,R,ugm-3,43.87289,R,ugm-3,100.85716,R,ugm-3
03-01-2019,18:00,28.55296,R,ugm-3,40.62660,R,ugm-3,84.40719,R,ugm-3
03-01-2019,19:00,29.59886,R,ugm-3,35.73292,R,ugm-3,81.11720,R,ugm-3
03-01-2019,20:00,19.66285,R,ugm-3,35.75845,R,ugm-3,65.90773,R,ugm-3
03-01-2019,21:00,17.64078,R,ugm-3,34.75990,R,ugm-3,61.80872,R,ugm-3
03-01-2019,22:00,23.14917,R,ugm-3,36.02200,R,ugm-3,71.51689,R,ugm-3
03-01-2019,23:00,26.60062,R,ugm-3,37.63343,R,ugm-3,78.42049,R,ugm-3
03-01-2019,24:00,22.48677,R,ugm-3,36.60620,R,ugm-3,71.08542,R,ugm-3
04-01-2019,01:00,14.79611,R,ugm-3,33.47225,R,ugm-3,56.15930,R,ugm-3
04-01-2019,02:00,4.93204,R,ugm-3,30.38118,R,ugm-3,37.94353,R,ugm-3
04-01-2019,03:00,5.47875,R,ugm-3,27.13093,R,ugm-3,35.53156,R,ugm-3
04-01-2019,04:00,7.11888,R,ugm-3,28.45004,R,ugm-3,39.36551,R,ugm-3
04-01-2019,05:00,18.42535,R,ugm-3,32.65944,R,ugm-3,60.91124,R,ugm-3
04-01-2019,06:00,30.63912,R,ugm-3,36.39564,R,ugm-3,83.37496,R,ugm-3
04-01-2019,07:00,82.49529,R,ugm-3,43.93086,R,ugm-3,170.42188,R,ugm-3
04-01-2019,08:00,169.52713,R,ugm-3,52.66413,R,ugm-3,312.60211,R,ugm-3
04-01-2019,09:00,176.43664,R,ugm-3,53.57157,R,ugm-3,324.10397,R,ugm-3
04-01-2019,10:00,137.73643,R,ugm-3,41.79394,R,ugm-3,252.98685,R,ugm-3
04-01-2019,11:00,128.80293,R,ugm-3,46.36589,R,ugm-3,243.86097,R,ugm-3
04-01-2019,12:00,63.26733,R,ugm-3,43.76770,R,ugm-3,140.77625,R,ugm-3
04-01-2019,13:00,64.62829,R,ugm-3,45.19087,R,ugm-3,144.28621,R,ugm-3
04-01-2019,14:00,74.81807,R,ugm-3,43.82259,R,ugm-3,158.54203,R,ugm-3
04-01-2019,15:00,69.37422,R,ugm-3,48.38976,R,ugm-3,154.76208,R,ugm-3
04-01-2019,16:00,84.20522,R,ugm-3,49.57090,R,ugm-3,178.68378,R,ugm-3
04-01-2019,17:00,75.37641,R,ugm-3,49.01440,R,ugm-3,164.58996,R,ugm-3
04-01-2019,18:00,79.00565,R,ugm-3,47.28360,R,ugm-3,168.42391,R,ugm-3
04-01-2019,19:00,84.76357,R,ugm-3,49.63278,R,ugm-3,179.60177,R,ugm-3
04-01-2019,20:00,45.43523,R,ugm-3,46.16219,R,ugm-3,115.82856,R,ugm-3
04-01-2019,21:00,23.20616,R,ugm-3,45.41671,R,ugm-3,80.99899,R,ugm-3
04-01-2019,22:00,25.99788,R,ugm-3,42.64811,R,ugm-3,82.51097,R,ugm-3
04-01-2019,23:00,31.05787,R,ugm-3,42.07148,R,ugm-3,89.69289,R,ugm-3
04-01-2019,24:00,22.78741,R,ugm-3,37.90489,R,ugm-3,72.84509,R,ugm-3
05-01-2019,01:00,13.78562,R,ugm-3,33.43130,R,ugm-3,54.56895,R,ugm-3
05-01-2019,02:00,13.92534,R,ugm-3,29.90112,R,ugm-3,51.25300,R,ugm-3
05-01-2019,03:00,10.05978,R,ugm-3,26.36697,R,ugm-3,41.79174,R,ugm-3
05-01-2019,04:00,8.20850,R,ugm-3,26.39421,R,ugm-3,38.98040,R,ugm-3
05-01-2019,05:00,2.75945,R,ugm-3,23.12546,R,ugm-3,27.35656,R,ugm-3
05-01-2019,06:00,11.73640,R,ugm-3,27.20223,R,ugm-3,45.19780,R,ugm-3
05-01-2019,07:00,27.87396,R,ugm-3,30.19333,R,ugm-3,72.93281,R,ugm-3
05-01-2019,08:00,36.46668,R,ugm-3,36.31898,R,ugm-3,92.23378,R,ugm-3
05-01-2019,09:00,32.13539,R,ugm-3,37.06719,R,ugm-3,86.34077,R,ugm-3
05-01-2019,10:00,65.59811,R,ugm-3,43.87757,R,ugm-3,144.45994,R,ugm-3
05-01-2019,11:00,59.38061,R,ugm-3,43.94968,R,ugm-3,134.99868,R,ugm-3
05-01-2019,12:00,46.31688,R,ugm-3,34.83977,R,ugm-3,105.85800,R,ugm-3
05-01-2019,13:00,40.34389,R,ugm-3,36.32109,R,ugm-3,98.18086,R,ugm-3
05-01-2019,14:00,76.25170,R,ugm-3,44.03193,R,ugm-3,160.94957,R,ugm-3
05-01-2019,15:00,85.01907,R,ugm-3,51.13327,R,ugm-3,181.49402,R,ugm-3
05-01-2019,16:00,72.51421,R,ugm-3,50.73582,R,ugm-3,161.92273,R,ugm-3
05-01-2019,17:00,125.11845,R,ugm-3,53.22808,R,ugm-3,245.07369,R,ugm-3
05-01-2019,18:00,152.46846,R,ugm-3,50.16425,R,ugm-3,283.94596,R,ugm-3
05-01-2019,19:00,83.13286,R,ugm-3,46.61860,R,ugm-3,174.08720,R,ugm-3
05-01-2019,20:00,47.92365,R,ugm-3,41.08045,R,ugm-3,114.56236,R,ugm-3
05-01-2019,21:00,39.15628,R,ugm-3,40.73716,R,ugm-3,100.77595,R,ugm-3
05-01-2019,22:00,25.46380,R,ugm-3,36.32175,R,ugm-3,75.36570,R,ugm-3
05-01-2019,23:00,28.81706,R,ugm-3,36.31627,R,ugm-3,80.50182,R,ugm-3
05-01-2019,24:00,20.50378,R,ugm-3,33.76292,R,ugm-3,65.20160,R,ugm-3
06-01-2019,01:00,17.48153,R,ugm-3,29.92294,R,ugm-3,56.72758,R,ugm-3
06-01-2019,02:00,12.12053,R,ugm-3,31.86402,R,ugm-3,50.44857,R,ugm-3
06-01-2019,03:00,19.85902,R,ugm-3,29.79592,R,ugm-3,60.24599,R,ugm-3
06-01-2019,04:00,8.07647,R,ugm-3,21.28473,R,ugm-3,33.66847,R,ugm-3
06-01-2019,05:00,5.34935,R,ugm-3,20.16157,R,ugm-3,28.36379,R,ugm-3
06-01-2019,06:00,5.34935,R,ugm-3,25.73690,R,ugm-3,33.93911,R,ugm-3
06-01-2019,07:00,8.98551,R,ugm-3,27.30661,R,ugm-3,41.08419,R,ugm-3
06-01-2019,08:00,7.23735,R,ugm-3,27.87603,R,ugm-3,38.97315,R,ugm-3
06-01-2019,09:00,4.09068,R,ugm-3,20.52175,R,ugm-3,26.79404,R,ugm-3
06-01-2019,10:00,14.71945,R,ugm-3,24.68543,R,ugm-3,47.25494,R,ugm-3
06-01-2019,11:00,14.99915,R,ugm-3,27.82910,R,ugm-3,50.82748,R,ugm-3
06-01-2019,12:00,24.47414,R,ugm-3,29.37741,R,ugm-3,66.90390,R,ugm-3
06-01-2019,13:00,25.59296,R,ugm-3,33.39962,R,ugm-3,72.64161,R,ugm-3
06-01-2019,14:00,25.10348,R,ugm-3,30.95652,R,ugm-3,69.44798,R,ugm-3
06-01-2019,15:00,34.22884,R,ugm-3,37.42540,R,ugm-3,89.90888,R,ugm-3
06-01-2019,16:00,38.28455,R,ugm-3,38.51419,R,ugm-3,97.21635,R,ugm-3
06-01-2019,17:00,46.92043,R,ugm-3,39.94176,R,ugm-3,111.88541,R,ugm-3
06-01-2019,18:00,32.34083,R,ugm-3,34.42020,R,ugm-3,84.00878,R,ugm-3
06-01-2019,19:00,18.77516,R,ugm-3,27.12746,R,ugm-3,55.91564,R,ugm-3
06-01-2019,20:00,41.64100,R,ugm-3,38.07695,R,ugm-3,101.92560,R,ugm-3
06-01-2019,21:00,29.08927,R,ugm-3,31.55711,R,ugm-3,76.16002,R,ugm-3
06-01-2019,22:00,23.28540,R,ugm-3,31.36251,R,ugm-3,67.06629,R,ugm-3
06-01-2019,23:00,41.88575,R,ugm-3,35.86129,R,ugm-3,100.08520,R,ugm-3
06-01-2019,24:00,32.06113,R,ugm-3,34.95733,R,ugm-3,84.11704,R,ugm-3
07-01-2019,01:00,18.10478,R,ugm-3,25.42249,R,ugm-3,53.18276,R,ugm-3
07-01-2019,02:00,4.15290,R,ugm-3,21.09080,R,ugm-3,27.45849,R,ugm-3
07-01-2019,03:00,5.56442,R,ugm-3,21.38331,R,ugm-3,29.91530,R,ugm-3
07-01-2019,04:00,3.39465,R,ugm-3,21.51278,R,ugm-3,26.71783,R,ugm-3
07-01-2019,05:00,3.35965,R,ugm-3,15.93023,R,ugm-3,21.08162,R,ugm-3
07-01-2019,06:00,4.47953,R,ugm-3,14.48407,R,ugm-3,21.35259,R,ugm-3
07-01-2019,07:00,18.40808,R,ugm-3,24.34323,R,ugm-3,52.56856,R,ugm-3
07-01-2019,08:00,50.46473,R,ugm-3,38.92299,R,ugm-3,116.30116,R,ugm-3
07-01-2019,09:00,52.49452,R,ugm-3,39.49591,R,ugm-3,119.98638,R,ugm-3
07-01-2019,10:00,41.82063,R,ugm-3,36.40652,R,ugm-3,100.53059,R,ugm-3
07-01-2019,11:00,46.09019,R,ugm-3,35.27940,R,ugm-3,105.95003,R,ugm-3
07-01-2019,12:00,26.28226,R,ugm-3,33.78484,R,ugm-3,74.08373,R,ugm-3
07-01-2019,13:00,33.17654,R,ugm-3,32.64358,R,ugm-3,83.51355,R,ugm-3
07-01-2019,14:00,27.61212,R,ugm-3,30.82444,R,ugm-3,73.16243,R,ugm-3
07-01-2019,15:00,33.31652,R,ugm-3,35.40963,R,ugm-3,86.49425,R,ugm-3
07-01-2019,16:00,29.64191,R,ugm-3,32.04769,R,ugm-3,77.49798,R,ugm-3
07-01-2019,17:00,25.09238,R,ugm-3,33.27893,R,ugm-3,71.75337,R,ugm-3
07-01-2019,18:00,20.40287,R,ugm-3,29.79311,R,ugm-3,61.07708,R,ugm-3
07-01-2019,19:00,16.62327,R,ugm-3,22.74436,R,ugm-3,48.23301,R,ugm-3
07-01-2019,20:00,7.94417,R,ugm-3,16.54213,R,ugm-3,28.72303,R,ugm-3
07-01-2019,21:00,4.93449,R,ugm-3,13.78649,R,ugm-3,21.35259,R,ugm-3
07-01-2019,22:00,5.49443,R,ugm-3,14.49956,R,ugm-3,22.92423,R,ugm-3
07-01-2019,23:00,4.37454,R,ugm-3,12.36889,R,ugm-3,19.07642,R,ugm-3
07-01-2019,24:00,2.76471,R,ugm-3,8.06296,R,ugm-3,12.30213,R,ugm-3
08-01-2019,01:00,1.30777,R,ugm-3,7.61678,R,ugm-3,9.62200,R,ugm-3
08-01-2019,02:00,1.44789,R,ugm-3,7.69132,R,ugm-3,9.91139,R,ugm-3
08-01-2019,03:00,0.91077,R,ugm-3,7.06797,R,ugm-3,8.46447,R,ugm-3
08-01-2019,04:00,0.94580,R,ugm-3,7.28556,R,ugm-3,8.73577,R,ugm-3
08-01-2019,05:00,1.08592,R,ugm-3,7.45053,R,ugm-3,9.11558,R,ugm-3
08-01-2019,06:00,3.22273,R,ugm-3,11.28212,R,ugm-3,16.22356,R,ugm-3
08-01-2019,07:00,14.92262,R,ugm-3,25.08428,R,ugm-3,47.96532,R,ugm-3
08-01-2019,08:00,41.22988,R,ugm-3,40.30869,R,ugm-3,103.52696,R,ugm-3
08-01-2019,09:00,39.65354,R,ugm-3,43.48533,R,ugm-3,104.28659,R,ugm-3
08-01-2019,10:00,52.47439,R,ugm-3,45.69352,R,ugm-3,126.15313,R,ugm-3
08-01-2019,11:00,45.67864,R,ugm-3,40.10700,R,ugm-3,110.14660,R,ugm-3
08-01-2019,12:00,41.26491,R,ugm-3,37.86757,R,ugm-3,101.13954,R,ugm-3
08-01-2019,13:00,37.02632,R,ugm-3,35.19680,R,ugm-3,91.96970,R,ugm-3
08-01-2019,14:00,36.29070,R,ugm-3,37.62696,R,ugm-3,93.27193,R,ugm-3
08-01-2019,15:00,48.62113,R,ugm-3,36.78895,R,ugm-3,111.34031,R,ugm-3
08-01-2019,16:00,52.05403,R,ugm-3,41.07489,R,ugm-3,120.88997,R,ugm-3
08-01-2019,17:00,34.15389,R,ugm-3,38.57020,R,ugm-3,90.93877,R,ugm-3
08-01-2019,18:00,37.55177,R,ugm-3,39.92559,R,ugm-3,97.50416,R,ugm-3
08-01-2019,19:00,39.65354,R,ugm-3,38.76477,R,ugm-3,99.56602,R,ugm-3
08-01-2019,20:00,17.26961,R,ugm-3,30.00435,R,ugm-3,56.48405,R,ugm-3
08-01-2019,21:00,15.83339,R,ugm-3,29.81910,R,ugm-3,54.09663,R,ugm-3
08-01-2019,22:00,10.33374,R,ugm-3,26.26045,R,ugm-3,42.10530,R,ugm-3
08-01-2019,23:00,15.09777,R,ugm-3,28.17981,R,ugm-3,51.32940,R,ugm-3
08-01-2019,24:00,8.37208,R,ugm-3,24.27642,R,ugm-3,37.11344,R,ugm-3
09-01-2019,01:00,5.18931,R,ugm-3,20.58160,R,ugm-3,28.53843,R,ugm-3
09-01-2019,02:00,2.15053,R,ugm-3,16.33180,R,ugm-3,19.62923,R,ugm-3
09-01-2019,03:00,1.54277,R,ugm-3,13.00827,R,ugm-3,15.37381,R,ugm-3
09-01-2019,04:00,1.43758,R,ugm-3,11.43117,R,ugm-3,13.63543,R,ugm-3
09-01-2019,05:00,1.29733,R,ugm-3,8.65838,R,ugm-3,10.64759,R,ugm-3
09-01-2019,06:00,1.82327,R,ugm-3,10.45952,R,ugm-3,13.25516,R,ugm-3
09-01-2019,07:00,11.57076,R,ugm-3,17.13470,R,ugm-3,34.87629,R,ugm-3
09-01-2019,08:00,35.90443,R,ugm-3,35.72343,R,ugm-3,90.77612,R,ugm-3
09-01-2019,09:00,31.94232,R,ugm-3,35.17100,R,ugm-3,84.14854,R,ugm-3
09-01-2019,10:00,31.48650,R,ugm-3,33.58829,R,ugm-3,81.86692,R,ugm-3
09-01-2019,11:00,38.46402,R,ugm-3,31.58148,R,ugm-3,90.55882,R,ugm-3
09-01-2019,12:00,30.60993,R,ugm-3,29.66288,R,ugm-3,76.59745,R,ugm-3
09-01-2019,13:00,27.20882,R,ugm-3,30.36890,R,ugm-3,72.08852,R,ugm-3
09-01-2019,14:00,18.33791,R,ugm-3,26.26102,R,ugm-3,54.37876,R,ugm-3
09-01-2019,15:00,22.51039,R,ugm-3,28.06629,R,ugm-3,62.58174,R,ugm-3
09-01-2019,16:00,25.06999,R,ugm-3,32.39895,R,ugm-3,70.83906,R,ugm-3
09-01-2019,17:00,43.12739,R,ugm-3,40.56544,R,ugm-3,106.69318,R,ugm-3
09-01-2019,18:00,39.76135,R,ugm-3,39.53364,R,ugm-3,100.50020,R,ugm-3
09-01-2019,19:00,45.26623,R,ugm-3,39.56756,R,ugm-3,108.97481,R,ugm-3
09-01-2019,20:00,22.08964,R,ugm-3,31.80793,R,ugm-3,65.67824,R,ugm-3
09-01-2019,21:00,22.89609,R,ugm-3,29.43058,R,ugm-3,64.53742,R,ugm-3
09-01-2019,22:00,19.10929,R,ugm-3,28.44637,R,ugm-3,57.74687,R,ugm-3
09-01-2019,23:00,21.59876,R,ugm-3,29.51844,R,ugm-3,62.63607,R,ugm-3
09-01-2019,24:00,23.52722,R,ugm-3,28.95178,R,ugm-3,65.02634,R,ugm-3
10-01-2019,01:00,14.08528,R,ugm-3,26.19307,R,ugm-3,47.79020,R,ugm-3
10-01-2019,02:00,11.18399,R,ugm-3,23.02713,R,ugm-3,40.17567,R,ugm-3
10-01-2019,03:00,9.54617,R,ugm-3,22.94586,R,ugm-3,37.58311,R,ugm-3
10-01-2019,04:00,5.47501,R,ugm-3,23.09660,R,ugm-3,31.49149,R,ugm-3
10-01-2019,05:00,6.10674,R,ugm-3,25.82644,R,ugm-3,35.18998,R,ugm-3
10-01-2019,06:00,8.66876,R,ugm-3,27.28261,R,ugm-3,40.57453,R,ugm-3
10-01-2019,07:00,51.31065,R,ugm-3,40.11133,R,ugm-3,118.78656,R,ugm-3
10-01-2019,08:00,94.05783,R,ugm-3,39.67074,R,ugm-3,183.89073,R,ugm-3
10-01-2019,09:00,112.65882,R,ugm-3,41.77088,R,ugm-3,214.51199,R,ugm-3
10-01-2019,10:00,126.41653,R,ugm-3,39.54916,R,ugm-3,233.38513,R,ugm-3
10-01-2019,11:00,128.80307,R,ugm-3,40.62173,R,ugm-3,238.11701,R,ugm-3
10-01-2019,12:00,101.91938,R,ugm-3,43.49825,R,ugm-3,199.77245,R,ugm-3
10-01-2019,13:00,85.52945,R,ugm-3,45.94872,R,ugm-3,177.09205,R,ugm-3
10-01-2019,14:00,84.19580,R,ugm-3,47.06901,R,ugm-3,176.16743,R,ugm-3
10-01-2019,15:00,81.73906,R,ugm-3,48.33404,R,ugm-3,173.66552,R,ugm-3
10-01-2019,16:00,116.20353,R,ugm-3,49.17164,R,ugm-3,227.34790,R,ugm-3
10-01-2019,17:00,84.37128,R,ugm-3,48.54041,R,ugm-3,177.90789,R,ugm-3
10-01-2019,18:00,121.18719,R,ugm-3,49.30782,R,ugm-3,235.12559,R,ugm-3
10-01-2019,19:00,137.15597,R,ugm-3,44.40291,R,ugm-3,254.70580,R,ugm-3
10-01-2019,20:00,71.98232,R,ugm-3,41.32083,R,ugm-3,151.69218,R,ugm-3
10-01-2019,21:00,29.79668,R,ugm-3,37.96337,R,ugm-3,83.65098,R,ugm-3
10-01-2019,22:00,31.58658,R,ugm-3,36.85057,R,ugm-3,85.28266,R,ugm-3
10-01-2019,23:00,30.18274,R,ugm-3,38.18727,R,ugm-3,84.46682,R,ugm-3
10-01-2019,24:00,21.54907,R,ugm-3,34.83659,R,ugm-3,67.87803,R,ugm-3
11-01-2019,01:00,18.40785,R,ugm-3,30.44064,R,ugm-3,58.66562,R,ugm-3
11-01-2019,02:00,9.46154,R,ugm-3,25.64360,R,ugm-3,40.15110,R,ugm-3
11-01-2019,03:00,5.93688,R,ugm-3,22.26268,R,ugm-3,31.36578,R,ugm-3
11-01-2019,04:00,6.49896,R,ugm-3,21.45530,R,ugm-3,31.42023,R,ugm-3
11-01-2019,05:00,4.70735,R,ugm-3,19.90049,R,ugm-3,27.11833,R,ugm-3
11-01-2019,06:00,11.41708,R,ugm-3,21.32009,R,ugm-3,38.82604,R,ugm-3
11-01-2019,07:00,58.91216,R,ugm-3,34.69675,R,ugm-3,125.02746,R,ugm-3
11-01-2019,08:00,102.01604,R,ugm-3,43.75222,R,ugm-3,200.17463,R,ugm-3
11-01-2019,09:00,104.40485,R,ugm-3,47.82197,R,ugm-3,207.90717,R,ugm-3
11-01-2019,10:00,111.71178,R,ugm-3,47.78133,R,ugm-3,219.07033,R,ugm-3
11-01-2019,11:00,113.43313,R,ugm-3,45.63206,R,ugm-3,219.56042,R,ugm-3
11-01-2019,12:00,94.18217,R,ugm-3,45.58101,R,ugm-3,189.99165,R,ugm-3
11-01-2019,13:00,105.52899,R,ugm-3,43.59340,R,ugm-3,205.40226,R,ugm-3
11-01-2019,14:00,95.06040,R,ugm-3,46.14030,R,ugm-3,191.89755,R,ugm-3
11-01-2019,15:00,,,,,,,,,
11-01-2019,16:00,108.19883,R,ugm-3,47.55896,R,ugm-3,213.46152,R,ugm-3
11-01-2019,17:00,54.83714,R,ugm-3,54.44974,R,ugm-3,138.53217,R,ugm-3
11-01-2019,18:00,86.13751,R,ugm-3,49.85671,R,ugm-3,181.93239,R,ugm-3
11-01-2019,19:00,44.33342,R,ugm-3,43.81807,R,ugm-3,111.79503,R,ugm-3
11-01-2019,20:00,34.53229,R,ugm-3,39.56937,R,ugm-3,92.51815,R,ugm-3
11-01-2019,21:00,23.60702,R,ugm-3,37.31661,R,ugm-3,73.51354,R,ugm-3
11-01-2019,22:00,38.60731,R,ugm-3,41.48927,R,ugm-3,100.68632,R,ugm-3
11-01-2019,23:00,29.54390,R,ugm-3,39.43114,R,ugm-3,84.73116,R,ugm-3
11-01-2019,24:00,17.95117,R,ugm-3,34.60781,R,ugm-3,62.13255,R,ugm-3
12-01-2019,01:00,13.22120,R,ugm-3,30.03109,R,ugm-3,50.30332,R,ugm-3
12-01-2019,02:00,21.89469,R,ugm-3,30.32546,R,ugm-3,63.89684,R,ugm-3
12-01-2019,03:00,12.02567,R,ugm-3,28.99285,R,ugm-3,47.43196,R,ugm-3
12-01-2019,04:00,6.29414,R,ugm-3,19.84417,R,ugm-3,29.49505,R,ugm-3
12-01-2019,05:00,2.88335,R,ugm-3,16.45989,R,ugm-3,20.88097,R,ugm-3
12-01-2019,06:00,2.46139,R,ugm-3,11.92753,R,ugm-3,15.70161,R,ugm-3
12-01-2019,07:00,12.69376,R,ugm-3,20.66285,R,ugm-3,40.12635,R,ugm-3
12-01-2019,08:00,15.68260,R,ugm-3,21.15034,R,ugm-3,45.19666,R,ugm-3
12-01-2019,09:00,12.58827,R,ugm-3,21.15171,R,ugm-3,40.45346,R,ugm-3
12-01-2019,10:00,17.05395,R,ugm-3,24.06343,R,ugm-3,50.21245,R,ugm-3
12-01-2019,11:00,25.56334,R,ugm-3,26.82653,R,ugm-3,66.02310,R,ugm-3
12-01-2019,12:00,24.40297,R,ugm-3,25.22553,R,ugm-3,62.64290,R,ugm-3
12-01-2019,13:00,31.29487,R,ugm-3,23.49025,R,ugm-3,71.47505,R,ugm-3
12-01-2019,14:00,25.80948,R,ugm-3,26.66720,R,ugm-3,66.24118,R,ugm-3
12-01-2019,15:00,23.94585,R,ugm-3,25.38124,R,ugm-3,62.09770,R,ugm-3
12-01-2019,16:00,31.54101,R,ugm-3,26.92921,R,ugm-3,75.29142,R,ugm-3
12-01-2019,17:00,27.81376,R,ugm-3,28.33721,R,ugm-3,70.98438,R,ugm-3
12-01-2019,18:00,41.94919,R,ugm-3,34.30456,R,ugm-3,98.62576,R,ugm-3
12-01-2019,19:00,33.79143,R,ugm-3,32.09270,R,ugm-3,83.90550,R,ugm-3
12-01-2019,20:00,21.34381,R,ugm-3,27.89896,R,ugm-3,60.62567,R,ugm-3
12-01-2019,21:00,12.86958,R,ugm-3,24.53675,R,ugm-3,44.26983,R,ugm-3
12-01-2019,22:00,14.48706,R,ugm-3,23.96482,R,ugm-3,46.17801,R,ugm-3
12-01-2019,23:00,8.08744,R,ugm-3,17.42160,R,ugm-3,29.82216,R,ugm-3
12-01-2019,24:00,9.35330,R,ugm-3,18.86085,R,ugm-3,33.20237,R,ugm-3
13-01-2019,01:00,12.95215,R,ugm-3,16.09331,R,ugm-3,35.95300,R,ugm-3
13-01-2019,02:00,6.38222,R,ugm-3,15.46850,R,ugm-3,25.25443,R,ugm-3
13-01-2019,03:00,5.03304,R,ugm-3,12.42447,R,ugm-3,20.14169,R,ugm-3
13-01-2019,04:00,2.85088,R,ugm-3,9.65693,R,ugm-3,14.02822,R,ugm-3
13-01-2019,05:00,1.47824,R,ugm-3,8.54114,R,ugm-3,10.80773,R,ugm-3
13-01-2019,06:00,2.78049,R,ugm-3,9.43736,R,ugm-3,13.70071,R,ugm-3
13-01-2019,07:00,4.85706,R,ugm-3,18.64401,R,ugm-3,26.09140,R,ugm-3
13-01-2019,08:00,4.96265,R,ugm-3,20.77466,R,ugm-3,28.38395,R,ugm-3
13-01-2019,09:00,2.18216,R,ugm-3,14.66696,R,ugm-3,18.01289,R,ugm-3
13-01-2019,10:00,3.76598,R,ugm-3,12.45681,R,ugm-3,18.23123,R,ugm-3
13-01-2019,11:00,5.34980,R,ugm-3,15.10467,R,ugm-3,23.30759,R,ugm-3
13-01-2019,12:00,7.53196,R,ugm-3,13.66920,R,ugm-3,25.21804,R,ugm-3
13-01-2019,13:00,6.54647,R,ugm-3,14.79818,R,ugm-3,24.83595,R,ugm-3
13-01-2019,14:00,9.18617,R,ugm-3,16.91873,R,ugm-3,31.00400,R,ugm-3
13-01-2019,15:00,9.89009,R,ugm-3,15.83940,R,ugm-3,31.00400,R,ugm-3
13-01-2019,16:00,12.14264,R,ugm-3,21.11907,R,ugm-3,39.73752,R,ugm-3
13-01-2019,17:00,7.74313,R,ugm-3,18.64010,R,ugm-3,30.51274,R,ugm-3
13-01-2019,18:00,9.92529,R,ugm-3,19.77011,R,ugm-3,34.98867,R,ugm-3
13-01-2019,19:00,9.96049,R,ugm-3,22.71829,R,ugm-3,37.99082,R,ugm-3
13-01-2019,20:00,9.08059,R,ugm-3,19.04568,R,ugm-3,32.96904,R,ugm-3
13-01-2019,21:00,6.19451,R,ugm-3,15.66535,R,ugm-3,25.16346,R,ugm-3
13-01-2019,22:00,4.82186,R,ugm-3,10.83781,R,ugm-3,18.23123,R,ugm-3
13-01-2019,23:00,5.80735,R,ugm-3,11.56471,R,ugm-3,20.46919,R,ugm-3
13-01-2019,24:00,3.55480,R,ugm-3,8.52301,R,ugm-3,13.97364,R,ugm-3
14-01-2019,01:00,1.83193,R,ugm-3,7.39233,R,ugm-3,10.20125,R,ugm-3
14-01-2019,02:00,1.40918,R,ugm-3,7.23902,R,ugm-3,9.39972,R,ugm-3
14-01-2019,03:00,0.91596,R,ugm-3,6.51973,R,ugm-3,7.92418,R,ugm-3
14-01-2019,04:00,1.23303,R,ugm-3,6.96261,R,ugm-3,8.85323,R,ugm-3
14-01-2019,05:00,0.70459,R,ugm-3,6.73453,R,ugm-3,7.81488,R,ugm-3
14-01-2019,06:00,4.33321,R,ugm-3,12.70177,R,ugm-3,19.34593,R,ugm-3
14-01-2019,07:00,27.72550,R,ugm-3,31.21038,R,ugm-3,73.72222,R,ugm-3
14-01-2019,08:00,42.83889,R,ugm-3,43.50438,R,ugm-3,109.18976,R,ugm-3
14-01-2019,09:00,42.52183,R,ugm-3,46.01257,R,ugm-3,111.21180,R,ugm-3
14-01-2019,10:00,58.30457,R,ugm-3,46.02244,R,ugm-3,135.42154,R,ugm-3
14-01-2019,11:00,59.00916,R,ugm-3,46.25368,R,ugm-3,136.73313,R,ugm-3
14-01-2019,12:00,53.86568,R,ugm-3,47.47300,R,ugm-3,130.06588,R,ugm-3
14-01-2019,13:00,61.22861,R,ugm-3,45.69235,R,ugm-3,139.57490,R,ugm-3
14-01-2019,14:00,57.45907,R,ugm-3,44.31314,R,ugm-3,132.41581,R,ugm-3
14-01-2019,15:00,54.25320,R,ugm-3,43.92773,R,ugm-3,127.11481,R,ugm-3
14-01-2019,16:00,41.78201,R,ugm-3,42.77498,R,ugm-3,106.83983,R,ugm-3
14-01-2019,17:00,129.60878,R,ugm-3,54.35129,R,ugm-3,253.08198,R,ugm-3
14-01-2019,18:00,82.68328,R,ugm-3,50.88636,R,ugm-3,177.66563,R,ugm-3
14-01-2019,19:00,60.80586,R,ugm-3,43.71738,R,ugm-3,136.95173,R,ugm-3
14-01-2019,20:00,29.41651,R,ugm-3,39.38349,R,ugm-3,84.48818,R,ugm-3
14-01-2019,21:00,22.61724,R,ugm-3,40.90101,R,ugm-3,75.58030,R,ugm-3
14-01-2019,22:00,14.40881,R,ugm-3,32.66564,R,ugm-3,54.75883,R,ugm-3
14-01-2019,23:00,19.93981,R,ugm-3,37.57401,R,ugm-3,68.14797,R,ugm-3
14-01-2019,24:00,11.73137,R,ugm-3,31.08742,R,ugm-3,49.07528,R,ugm-3
15-01-2019,01:00,12.83560,R,ugm-3,29.99984,R,ugm-3,49.68081,R,ugm-3
15-01-2019,02:00,5.59501,R,ugm-3,19.36201,R,ugm-3,27.94090,R,ugm-3
15-01-2019,03:00,1.83366,R,ugm-3,12.94622,R,ugm-3,15.75779,R,ugm-3
15-01-2019,04:00,4.65467,R,ugm-3,14.80348,R,ugm-3,21.94054,R,ugm-3
15-01-2019,05:00,3.77310,R,ugm-3,14.67790,R,ugm-3,20.46324,R,ugm-3
15-01-2019,06:00,5.39518,R,ugm-3,17.44334,R,ugm-3,25.71584,R,ugm-3
15-01-2019,07:00,24.89542,R,ugm-3,28.30573,R,ugm-3,66.47818,R,ugm-3
15-01-2019,08:00,41.64517,R,ugm-3,35.39715,R,ugm-3,99.25220,R,ugm-3
15-01-2019,09:00,49.26190,R,ugm-3,43.52500,R,ugm-3,119.05886,R,ugm-3
15-01-2019,10:00,33.78161,R,ugm-3,36.51155,R,ugm-3,88.30929,R,ugm-3
15-01-2019,11:00,33.81687,R,ugm-3,34.65190,R,ugm-3,86.50371,R,ugm-3
15-01-2019,12:00,41.75096,R,ugm-3,35.45381,R,ugm-3,99.47106,R,ugm-3
15-01-2019,13:00,44.95986,R,ugm-3,36.98988,R,ugm-3,105.92737,R,ugm-3